Regional Weather Roundup
Issued by NWS

Home | Current Version | Previous Version | Text Only | Print | Product List | Glossary Off
Versions: 1 2 3 4 5 6 7 8 9 10 11 12 13 14 15 16 17 18 19 20 21 22 23 24 25 26 27 28 29 30 31 32 33 34 35 36 37 38 39 40 41 42 43 44 45 46 47 48 49 50

000
ASUS43 KOAX 290802
RWRNE

WEATHER ROUNDUP FOR NEBRASKA
NATIONAL WEATHER SERVICE OMAHA NE
300 AM CDT SUN MAR 29 2015

NOTES: SATELLITE DATA IS BEING USED TO AUGMENT CLOUD COVER ABOVE
       12000 FEET.
       "FAIR" INDICATES FEW OR NO CLOUDS BELOW 12,000 FEET WITH NO
       SIGNIFICANT WEATHER AND/OR OBSTRUCTIONS TO VISIBILITY.

  * THESE STATIONS DO NOT REPORT WEATHER SUCH AS RAIN...SNOW OR FOG.

NEZ001>004-019>022-054>056-290900-
NEBRASKA PANHANDLE

CITY           SKY/WX    TMP DP  RH WIND       PRES   REMARKS
SCOTTSBLUFF    CLEAR     49  21  33 W10       30.04R
ALLIANCE       CLEAR     49  20  31 NW13      29.99R
CHADRON        CLEAR     50  18  28 W14       30.00R
KIMBALL        CLEAR     47  23  39 NW13      30.04R
SIDNEY         CLEAR     51  25  36 N21G29    30.02R
$$

NEZ057>060-069>072-079>082-290900-
SOUTHWEST NEBRASKA

CITY           SKY/WX    TMP DP  RH WIND       PRES   REMARKS
NORTH PLATTE   MOCLDY    59  29  31 N16G28    29.91R
IMPERIAL         N/A     62  34  35 N21G26    29.94R
MCCOOK         LGT RAIN  69  35  28 NW12G23   29.84F
$$

NEZ005>010-023>029-035>040-094-290900-
NORTH CENTRAL NEBRASKA

CITY           SKY/WX    TMP DP  RH WIND       PRES   REMARKS
VALENTINE      CLEAR     49  36  61 W5        29.87R
AINSWORTH      CLEAR     54  35  49 NW18      29.86R
BROKEN BOW     MOCLDY    58  38  47 N25G38    29.84R
ORD            PTCLDY    43  34  70 NW3       29.84R
$$

NEZ041-046>049-061>064-073>077-083>087-290900-
SOUTH CENTRAL NEBRASKA

CITY           SKY/WX    TMP DP  RH WIND       PRES   REMARKS
GRAND ISLAND   PTCLDY    50  39  66 S23G32    29.77F
AURORA         MOCLDY    46  37  73 S17G23    29.79F
HASTINGS       PTCLDY    50  39  66 SW17G23   29.82R
HEBRON         PTCLDY    46  37  72 S8        29.84F
HOLDREGE       MOCLDY    49  38  65 S9        29.81F
KEARNEY *      PTCLDY    50  37  62 S17       29.78F
$$

NEZ011>018-030>034-042>045-290900-
NORTHEAST NEBRASKA

CITY           SKY/WX    TMP DP  RH WIND       PRES   REMARKS
NORFOLK        CLOUDY    45  35  68 SW10      29.86R
ALBION         MOCLDY    45  35  67 NW3       29.87R
BLAIR          MOCLDY    44  33  64 S22G29    29.85R
COLUMBUS *     CLOUDY    45  32  61 S17       29.81F
FREMONT        MOCLDY    44  33  67 SE18G25   29.83S
TEKAMAH        CLOUDY    45  32  60 S8G38     29.89R
$$

NEZ050>053-065>068-078-088>093-290900-
SOUTHEAST NEBRASKA

CITY           SKY/WX    TMP DP  RH WIND       PRES   REMARKS
LINCOLN        MOCLDY    44  34  67 S18       29.84F
OMAHA EPPLEY   MOCLDY    44  32  62 S20G28    29.86F
BEATRICE       PTCLDY    43  35  72 S16       29.86F
FALLS CITY     CLEAR     40  32  73 S17       29.92F WCI  31
NEBRASKA CITY  PTCLDY    40  31  69 S21       29.87F WCI  31
PLATTSMOUTH    PTCLDY    41  31  67 SE17G25   29.86F
$$

NEZ044-045-051>053-067-290900-
OMAHA AREA

CITY           SKY/WX    TMP DP  RH WIND       PRES   REMARKS
OMAHA EPPLEY   MOCLDY    44  32  62 S20G28    29.86F
BLAIR          MOCLDY    44  33  64 S22G29    29.85R
FREMONT        MOCLDY    44  33  67 SE18G25   29.83S
OFFUTT AFB     MOCLDY    42  32  66 SE13      29.86F
PLATTSMOUTH    PTCLDY    41  31  67 SE17G25   29.86F
WAHOO          FAIR      43  33  67 S16       29.83F
$$



USA.gov is the U.S. government's official web portal to all federal, state and local government web resources and services.